FW2284 Weather Reports


Display with metric or nautical units.
time (UTC)temp
F
wind
direction
speed
MPH
gust
MPH
rain 1hr
in
rain 24hr
in
rain mn
in
humidity
%
barometer
mb
20260904083038 80 231 0.0 1.0 0.00 0.00 0.00 73 1012.9
20260904081533 80 221 1.0 3.0 0.00 0.00 0.00 72 1012.7
20260904080035 81 202 1.0 4.0 0.00 0.00 0.00 71 1012.7
20260904074529 81 217 1.0 5.0 0.00 0.00 0.00 70 1012.6
20260904073028 81 166 1.0 6.0 0.00 0.00 0.00 70 1012.7
20260904071526 82 190 1.0 6.0 0.00 0.00 0.00 69 1012.8
20260904070025 82 202 3.0 7.0 0.00 0.00 0.00 69 1012.7
20260904064528 82 186 2.0 7.0 0.00 0.00 0.00 69 1012.7
20260904063030 83 145 4.0 8.0 0.00 0.00 0.00 68 1012.8
20260904061523 83 131 4.0 7.0 0.00 0.00 0.00 69 1012.8
20260904060023 83 169 3.0 6.0 0.00 0.00 0.00 70 1012.9
20260904054524 83 147 1.0 7.0 0.00 0.00 0.00 71 1012.7
20260904053025 83 143 3.0 7.0 0.00 0.00 0.00 71 1012.6
20260904051517 83 142 2.0 6.0 0.00 0.00 0.00 71 1012.5
20260904050012 82 152 3.0 6.0 0.00 0.00 0.00 72 1012.5
20260904044512 82 145 2.0 4.0 0.00 0.00 0.00 71 1012.6
20260904043012 83 133 2.0 4.0 0.00 0.00 0.00 70 1012.6
20260904041509 83 127 1.0 5.0 0.00 0.00 0.00 69 1012.5
20260904040009 84 167 2.0 7.0 0.00 0.00 0.00 68 1012.6
20260904034509 84 136 2.0 5.0 0.00 0.00 0.00 68 1012.6
20260904033008 84 122 2.0 6.0 0.00 0.00 0.00 68 1012.6
20260904031507 84 156 2.0 4.0 0.00 0.00 0.00 68 1012.6
20260904030007 84 122 1.0 3.0 0.00 0.00 0.00 69 1012.6
20260904024507 84 133 0.0 2.0 0.00 0.00 0.00 69 1012.4
20260904023006 84 129 1.0 2.0 0.00 0.00 0.00 68 1012.5
20260904021504 84 154 0.0 2.0 0.00 0.00 0.00 68 1012.2
20260904020004 84 141 0.0 3.0 0.00 0.00 0.00 69 1012.2
20260904014504 84 173 0.0 0.0 0.00 0.00 0.00 69 1012.0
20260904013003 84 156 0.0 1.0 0.00 0.00 0.00 67 1011.8
20260904011502 84 215 0.0 0.0 0.00 0.00 0.00 67 1011.8
20260904010004 86 240 0.0 0.0 0.00 0.00 0.00 66 1011.8
20260904004600 87 240 0.0 0.0 0.00 0.00 0.00 61 1011.7
20260904003100 90 240 0.0 0.0 0.00 0.00 0.00 56 1011.5
20260904001605 95 240 0.0 0.0 0.00 0.00 0.00 50 1011.4
20260904000059 97 240 0.0 0.0 0.00 0.00 0.00 47 1011.4
20260903234558 97 241 0.0 1.0 0.00 0.00 0.00 46 1011.4
20260903233056 97 155 1.0 4.0 0.00 0.00 0.00 47 1011.5
20260903231555 97 156 2.0 4.0 0.00 0.00 0.00 46 1011.4
20260903230055 97 152 2.0 5.0 0.00 0.00 0.00 44 1011.4
20260903224553 97 216 2.0 6.0 0.00 0.00 0.00 45 1011.4
20260903223056 97 155 3.0 6.0 0.00 0.00 0.00 44 1011.5
20260903221552 97 232 3.0 6.0 0.00 0.00 0.00 42 1011.5
20260903214549 98 186 2.0 6.0 0.00 0.00 0.00 40 1011.7
20260903213049 97 233 3.0 8.0 0.00 0.00 0.00 45 1011.9
20260903211546 97 96 4.0 9.0 0.00 0.00 0.00 43 1012.0
20260903210055 97 199 5.0 9.0 0.00 0.00 0.00 46 1012.0
20260903204544 97 219 3.0 9.0 0.00 0.00 0.00 44 1012.1
20260903203045 98 230 2.0 9.0 0.00 0.00 0.00 43 1012.2
20260903201541 97 149 5.0 11.0 0.00 0.00 0.00 43 1012.3
20260903200040 97 234 3.0 10.0 0.00 0.00 0.00 44 1012.5
20260903194547 96 226 2.0 8.0 0.00 0.00 0.00 45 1012.6
20260903193041 96 130 6.0 10.0 0.00 0.00 0.00 45 1012.8
20260903191533 96 174 4.0 10.0 0.00 0.00 0.00 47 1013.0
20260903190032 96 269 3.0 9.0 0.00 0.00 0.00 48 1013.1
20260903184530 96 131 6.0 11.0 0.00 0.00 0.00 50 1013.2
20260903183027 96 262 2.0 9.0 0.00 0.00 0.00 50 1013.4
20260903181525 96 221 3.0 8.0 0.00 0.00 0.00 51 1013.5
20260903180022 94 272 4.0 9.0 0.00 0.00 0.00 51 1013.6
20260903174522 94 219 5.0 9.0 0.00 0.00 0.00 51 1013.8
20260903173025 94 225 4.0 8.0 0.00 0.00 0.00 52 1014.2
20260903171519 94 252 3.0 9.0 0.00 0.00 0.00 53 1014.2
20260903170016 93 226 4.0 8.0 0.00 0.00 0.00 56 1014.2
20260903164515 92 203 3.0 10.0 0.00 0.00 0.00 55 1014.6
20260903163019 92 270 4.0 10.0 0.00 0.00 0.00 56 1014.5
20260903161511 92 243 5.0 10.0 0.00 0.00 0.00 56 1014.5
20260903160016 91 269 4.0 8.0 0.00 0.00 0.00 57 1014.6
20260903154507 90 307 4.0 11.0 0.00 0.00 0.00 57 1014.5
20260903153007 90 274 3.0 10.0 0.00 0.00 0.00 59 1014.4
20260903151505 90 290 3.0 9.0 0.00 0.00 0.00 58 1014.6
20260903150008 89 242 2.0 7.0 0.00 0.00 0.00 62 1014.5
20260903144600 89 263 2.0 7.0 0.00 0.00 0.00 61 1014.5
20260903143105 87 217 2.0 8.0 0.00 0.00 0.00 64 1014.5
20260903141554 86 257 1.0 6.0 0.00 0.00 0.00 68 1014.5
20260903140050 85 212 3.0 7.0 0.00 0.00 0.00 68 1014.6
20260903134552 84 164 3.0 6.0 0.00 0.00 0.00 68 1014.6
20260903133044 83 193 2.0 6.0 0.00 0.00 0.00 70 1014.6
20260903131541 82 220 2.0 5.0 0.00 0.00 0.00 70 1014.6
20260903130040 81 194 1.0 3.0 0.00 0.00 0.00 74 1014.5
20260903124539 79 198 1.0 5.0 0.00 0.00 0.00 74 1014.6
20260903123034 79 196 0.0 3.0 0.00 0.00 0.00 75 1014.5
20260903121501 78 165 1.0 3.0 0.00 0.00 0.00 77 1014.5
20260903120106 77 220 1.0 4.0 0.00 0.00 0.00 78 1014.3
20260903114600 77 201 1.0 2.0 0.00 0.00 0.00 78 1014.2
20260903113057 76 139 1.0 4.0 0.00 0.00 0.00 78 1014.1
20260903111558 77 174 1.0 2.0 0.00 0.00 0.00 78 1014.1
20260903110057 77 188 2.0 3.0 0.00 0.00 0.00 78 1013.9
20260903104601 77 202 0.0 4.0 0.00 0.00 0.00 77 1013.8
20260903103051 77 168 1.0 4.0 0.00 0.00 0.00 78 1013.8
20260903101549 78 193 0.0 3.0 0.00 0.00 0.00 76 1013.9
20260903100048 78 155 1.0 3.0 0.00 0.00 0.00 76 1014.0
20260903094557 78 153 1.0 3.0 0.00 0.00 0.00 76 1013.9
20260903093054 78 212 1.0 4.0 0.00 0.00 0.00 75 1013.9
20260903091544 79 191 1.0 3.0 0.00 0.00 0.00 75 1013.9
20260903090042 79 150 2.0 5.0 0.00 0.00 0.00 74 1013.8
20260903084540 79 198 1.0 4.0 0.00 0.00 0.00 73 1013.8